Location: C.E.K. Mees Observatory
(42.7003°N, 77.4088°W)
Time: 19:41:15
(UTC-05:00)

Vanguard 1 Rocket - Visible Passes

Search period start: 20 January 2018 00:00
Search period end: 30 January 2018 00:00
Orbit: 656 x 4222 km, 34.3° (Epoch: 19 January)

Date Brightness Start Highest point End Pass type
(mag) Time Alt. Az. Time Alt. Az. Time Alt. Az.
20 Jan 11.2 03:55:58 10° S 04:03:52 15° SSE 04:10:01 10° ESE visible
20 Jan 10.1 06:19:17 10° SW 06:31:10 32° SSE 06:38:08 10° ESE visible
21 Jan 10.6 05:06:33 10° SSW 05:19:17 27° SSE 05:27:13 10° ESE visible
22 Jan 11.0 03:54:45 10° S 04:06:59 21° SSE 04:15:23 10° ESE visible
22 Jan 9.9 06:20:59 10° SW 06:34:20 39° SSE 06:41:45 10° E visible
23 Jan 11.4 02:45:11 10° S 02:54:19 15° SE 03:01:35 10° ESE visible
23 Jan 10.3 05:07:31 10° SW 05:22:24 34° SSE 05:31:04 10° E visible
24 Jan 10.7 03:54:44 10° SSW 04:10:01 27° SSE 04:19:45 10° ESE visible
24 Jan 9.7 06:22:56 10° SW 06:37:29 45° S 06:45:15 10° E visible
25 Jan 11.1 02:46:45 14° S 02:57:16 21° SSE 03:07:15 10° ESE visible
25 Jan 10.1 05:08:53 10° SW 05:25:28 41° SSE 05:34:42 10° E visible
26 Jan 11.5 01:41:28 13° SSE 01:44:17 14° SE 01:51:59 10° ESE visible
26 Jan 10.5 03:58:54 15° SSW 04:13:00 34° SSE 04:23:39 10° E visible
26 Jan 9.6 06:25:04 10° WSW 06:40:36 51° S 06:48:40 10° E visible
27 Jan 10.9 02:53:05 23° S 03:00:07 27° SSE 03:11:45 10° E visible
27 Jan 10.0 05:10:33 10° SW 05:28:31 47° SSE 05:38:11 10° E visible
28 Jan 11.3 01:46:56 20° SE 01:47:02 20° SE 01:58:15 10° ESE visible
28 Jan 10.3 04:04:19 24° SSW 04:15:55 41° SSE 04:27:17 10° E visible
28 Jan 9.5 06:27:22 10° WSW 06:43:39 55° S 06:52:01 10° ESE visible
29 Jan 10.7 02:57:53 31° S 03:02:55 34° SSE 03:15:42 10° E visible
29 Jan 9.9 05:15:15 15° SW 05:31:30 53° S 05:41:35 10° E visible
